• In Hungary
  • List of Countries
  • For 7 days
  • Water Temperature
  • Satellite Maps
  • Weather Map
  • News
  • Weather Widgets
  • user-avatar
    Login

    Hourly Weather Hertogenbosch

    Today, 14 November, Wednesday

    Time Temperature Precipitation Wind Pressure Humidity
    00:00 +8°C° 0 mm 3 mps 770 mmHg 92%
    01:00 +8°C° 0 mm 3 mps 770 mmHg 93%
    02:00 +8°C° 0 mm 3 mps 770 mmHg 93%
    03:00 +7°C° 0 mm 3 mps 770 mmHg 93%
    04:00 +7°C° 0 mm 3 mps 770 mmHg 93%
    05:00 +7°C° 0 mm 3 mps 770 mmHg 93%
    06:00 +5°C° 0 mm 3 mps 770 mmHg 93%
    07:00 +7°C° 0 mm 3 mps 770 mmHg 90%
    08:00 +8°C° 0 mm 3 mps 770 mmHg 87%
    09:00 +7°C° 0 mm 4 mps 770 mmHg 83%
    10:00 +10°C° 0 mm 4 mps 770 mmHg 79%
    11:00 +11°C° 0 mm 3 mps 769 mmHg 74%
    12:00 +12°C° 0 mm 3 mps 770 mmHg 70%
    13:00 +11°C° 0 mm 3 mps 769 mmHg 72%
    14:00 +11°C° 0 mm 3 mps 769 mmHg 73%
    15:00 +11°C° 0 mm 3 mps 769 mmHg 74%
    16:00 +10°C° 0 mm 3 mps 769 mmHg 77%
    17:00 +9°C° 0 mm 3 mps 768 mmHg 80%
    18:00 +8°C° 0 mm 3 mps 768 mmHg 83%
    19:00 +8°C° 0 mm 3 mps 768 mmHg 83%
    20:00 +7°C° 0 mm 2 mps 768 mmHg 84%
    21:00 +7°C° 0 mm 2 mps 768 mmHg 84%
    22:00 +6°C° 0 mm 2 mps 768 mmHg 84%
    23:00 +6°C° 0 mm 2 mps 768 mmHg 83%

    Tomorrow, 15 November, Thursday

    Time Temperature Precipitation Wind Pressure Humidity
    00:00 +6°C° 0 mm 2 mps 768 mmHg 83%
    01:00 +6°C° 0 mm 2 mps 768 mmHg 82%
    02:00 +6°C° 0 mm 2 mps 768 mmHg 81%
    03:00 +6°C° 0 mm 2 mps 768 mmHg 80%
    04:00 +6°C° 0 mm 2 mps 768 mmHg 80%
    05:00 +5°C° 0 mm 2 mps 768 mmHg 79%
    06:00 +5°C° 0 mm 2 mps 768 mmHg 79%
    07:00 +6°C° 0 mm 2 mps 768 mmHg 76%
    08:00 +7°C° 0 mm 2 mps 768 mmHg 73%
    09:00 +8°C° 0 mm 2 mps 768 mmHg 70%
    10:00 +9°C° 0 mm 2 mps 768 mmHg 66%
    11:00 +12°C° 0 mm 2 mps 768 mmHg 62%
    12:00 +13°C° 0 mm 2 mps 768 mmHg 58%
    13:00 +13°C° 0 mm 2 mps 767 mmHg 61%
    14:00 +12°C° 0 mm 2 mps 767 mmHg 64%
    15:00 +12°C° 0 mm 2 mps 767 mmHg 67%
    16:00 +10°C° 0 mm 2 mps 767 mmHg 70%
    17:00 +9°C° 0 mm 2 mps 767 mmHg 73%
    18:00 +8°C° 0 mm 2 mps 768 mmHg 76%
    19:00 +7°C° 0 mm 2 mps 768 mmHg 78%
    20:00 +7°C° 0 mm 2 mps 768 mmHg 80%
    21:00 +7°C° 0 mm 2 mps 768 mmHg 81%
    22:00 +6°C° 0 mm 2 mps 768 mmHg 82%
    23:00 +6°C° 0 mm 2 mps 768 mmHg 82%

    Day after tomorrow, 16 November, Friday

    Time Temperature Precipitation Wind Pressure Humidity
    00:00 +6°C° 0 mm 2 mps 768 mmHg 83%
    01:00 +5°C° 0 mm 2 mps 768 mmHg 83%
    02:00 +5°C° 0 mm 2 mps 768 mmHg 83%
    03:00 +5°C° 0 mm 2 mps 769 mmHg 83%
    04:00 +5°C° 0 mm 2 mps 769 mmHg 83%
    05:00 +5°C° 0 mm 2 mps 769 mmHg 83%
    06:00 +4°C° 0 mm 2 mps 769 mmHg 82%
    07:00 +5°C° 0 mm 2 mps 769 mmHg 78%
    08:00 +6°C° 0 mm 2 mps 769 mmHg 74%
    09:00 +7°C° 0 mm 3 mps 770 mmHg 71%
    10:00 +8°C° 0 mm 3 mps 770 mmHg 66%
    11:00 +10°C° 0 mm 3 mps 769 mmHg 61%
    12:00 +11°C° 0 mm 3 mps 769 mmHg 57%
    13:00 +11°C° 0 mm 3 mps 769 mmHg 59%
    14:00 +11°C° 0 mm 3 mps 769 mmHg 61%
    15:00 +10°C° 0 mm 3 mps 769 mmHg 63%
    16:00 +9°C° 0 mm 3 mps 770 mmHg 64%
    17:00 +9°C° 0 mm 3 mps 770 mmHg 66%
    18:00 +8°C° 0 mm 3 mps 770 mmHg 67%
    19:00 +7°C° 0 mm 3 mps 770 mmHg 67%
    20:00 +6°C° 0 mm 4 mps 771 mmHg 67%
    21:00 +5°C° 0 mm 4 mps 771 mmHg 68%
    22:00 +5°C° 0 mm 4 mps 771 mmHg 68%
    23:00 +5°C° 0 mm 3 mps 771 mmHg 68%

    17 November, Saturday

    Time Temperature Precipitation Wind Pressure Humidity
    00:00 +4°C° 0 mm 3 mps 771 mmHg 69%
    01:00 +4°C° 0 mm 3 mps 771 mmHg 70%
    02:00 +4°C° 0 mm 3 mps 771 mmHg 71%
    03:00 +3°C° 0 mm 3 mps 771 mmHg 72%
    04:00 +3°C° 0 mm 4 mps 771 mmHg 73%
    05:00 +3°C° 0 mm 4 mps 771 mmHg 74%
    06:00 +3°C° 0 mm 4 mps 771 mmHg 76%
    07:00 +3°C° 0 mm 4 mps 771 mmHg 74%
    08:00 +3°C° 0 mm 5 mps 771 mmHg 71%
    09:00 +3°C° 0 mm 5 mps 772 mmHg 69%
    10:00 +6°C° 0 mm 5 mps 771 mmHg 65%
    11:00 +7°C° 0 mm 5 mps 771 mmHg 61%
    12:00 +8°C° 0 mm 5 mps 771 mmHg 57%
    13:00 +8°C° 0 mm 5 mps 771 mmHg 57%
    14:00 +8°C° 0 mm 5 mps 771 mmHg 58%
    15:00 +8°C° 0 mm 5 mps 770 mmHg 58%
    16:00 +7°C° 0 mm 5 mps 771 mmHg 59%
    17:00 +6°C° 0 mm 5 mps 771 mmHg 60%
    18:00 +5°C° 0 mm 6 mps 771 mmHg 61%
    19:00 +5°C° 0 mm 5 mps 771 mmHg 61%
    20:00 +5°C° 0 mm 5 mps 771 mmHg 60%
    21:00 +5°C° 0 mm 5 mps 771 mmHg 60%
    22:00 +3°C° 0 mm 5 mps 771 mmHg 58%
    23:00 +3°C° 0 mm 5 mps 771 mmHg 56%

    18 November, Sunday

    Time Temperature Precipitation Wind Pressure Humidity
    00:00 +2°C° 0 mm 5 mps 771 mmHg 53%
    01:00 +2°C° 0 mm 5 mps 771 mmHg 53%
    02:00 +2°C° 0 mm 5 mps 770 mmHg 52%
    03:00 +1°C° 0 mm 5 mps 770 mmHg 51%
    04:00 +1°C° 0 mm 5 mps 770 mmHg 52%
    05:00 +1°C° 0 mm 6 mps 770 mmHg 53%
    06:00 +1°C° 0 mm 6 mps 770 mmHg 54%
    07:00 +1°C° 0 mm 6 mps 770 mmHg 54%
    08:00 +2°C° 0 mm 6 mps 770 mmHg 53%
    09:00 +2°C° 0 mm 6 mps 770 mmHg 53%
    10:00 +4°C° 0 mm 7 mps 769 mmHg 50%
    11:00 +5°C° 0 mm 7 mps 769 mmHg 48%
    12:00 +6°C° 0 mm 7 mps 769 mmHg 45%
    13:00 +7°C° 0 mm 6 mps 768 mmHg 47%
    14:00 +7°C° 0 mm 6 mps 768 mmHg 48%
    15:00 +5°C° 0 mm 6 mps 768 mmHg 49%
    16:00 +5°C° 0 mm 6 mps 768 mmHg 51%
    17:00 +4°C° 0 mm 6 mps 768 mmHg 53%
    18:00 +3°C° 0 mm 6 mps 768 mmHg 54%
    19:00 +3°C° 0 mm 6 mps 768 mmHg 55%
    20:00 +3°C° 0 mm 6 mps 768 mmHg 55%
    21:00 +2°C° 0 mm 6 mps 768 mmHg 55%
    22:00 +2°C° 0 mm 6 mps 768 mmHg 54%
    23:00 +2°C° 0 mm 6 mps 768 mmHg 53%

    19 November, Monday

    Time Temperature Precipitation Wind Pressure Humidity
    00:00 +2°C° 0 mm 5 mps 768 mmHg 52%
    01:00 +1°C° 0 mm 5 mps 768 mmHg 50%
    02:00 +1°C° 0 mm 6 mps 768 mmHg 48%
    03:00 +1°C° 0 mm 6 mps 768 mmHg 46%
    04:00 +1°C° 0 mm 6 mps 768 mmHg 50%
    05:00 +1°C° 0 mm 6 mps 768 mmHg 54%
    06:00 +1°C° 0 mm 6 mps 768 mmHg 57%
    07:00 +1°C° 0 mm 6 mps 768 mmHg 62%
    08:00 +2°C° 0 mm 7 mps 768 mmHg 66%
    09:00 +2°C° 0 mm 7 mps 768 mmHg 70%
    10:00 +3°C° 0 mm 7 mps 768 mmHg 67%
    11:00 +4°C° 0 mm 7 mps 768 mmHg 64%
    12:00 +5°C° 0 mm 7 mps 768 mmHg 61%
    13:00 +4°C° 0 mm 7 mps 768 mmHg 61%
    14:00 +4°C° 0 mm 6 mps 767 mmHg 62%
    15:00 +4°C° 0 mm 6 mps 767 mmHg 62%
    16:00 +3°C° 0 mm 6 mps 767 mmHg 63%
    17:00 +2°C° 0 mm 6 mps 767 mmHg 64%
    18:00 +2°C° 0 mm 6 mps 767 mmHg 65%
    19:00 +1°C° 0 mm 6 mps 768 mmHg 66%
    20:00 +1°C° 0 mm 6 mps 768 mmHg 67%
    21:00 +1°C° 0 mm 6 mps 768 mmHg 68%
    22:00 0°C° 0 mm 5 mps 768 mmHg 70%
    23:00 0°C° 0 mm 5 mps 768 mmHg 72%
    Show more